Location: Wien
(48.2082°N, 16.3738°E)
Time: 06:30:31
(UTC+02:00)

DOVE 4 - Pass Details

Date: 25 March 2019
Orbit: 587 x 804 km, 97.7° (Epoch: 19 April)

Event Time Altitude Azimuth Distance (km) Brightness Sun altitude
Rises 04:15:36 0° 3° (N) 2,954 ? -15.9°
Reaches altitude 10° 04:18:07 10° 351° (N) 2,008 ? -15.5°
Maximum altitude 04:21:43 26° 296° (WNW) 1,212 ? -14.9°
Enters shadow 04:22:47 23° 271° (W) 1,292 ? -14.7°
